Skip Page Navigation
NASA JPL Caltech
NASA Logo - Jet Propulsion Laboratory + View the NASA Portal
+ Center for Near-Earth Object Studies
JPL Home Earth Solar System Stars & Galaxies Technology
JPL Solar System Dynamics
BODIES ORBITS EPHEMERIDES TOOLS PHYSICAL DATA DISCOVERY FAQ SITE MAP
IMPORTANT: The SSD Announcement email list is now available. Major changes are coming in the near future, including possible hostname and/or URL changes. To be notified of such changes, subscribe to this email list.

Please visit this page for more details.


JPL Small-Body Database Browser
Search: [ help ]  
413922 (2006 WC152)
Classification: Outer Main-belt Asteroid          SPK-ID: 2413922
Ephemeris | Orbit Diagram | Orbital Elements | Mission Design | Physical Parameters | Discovery Circumstances | Close-Approach Data ]

[ show orbit diagram ]
Orbital Elements at Epoch 2458600.5 (2019-Apr-27.0) TDB
Reference: JPL 13 (heliocentric ecliptic J2000)
 Element Value Uncertainty (1-sigma)   Units 
e .2189657839769907 2.3214e-07  
a 4.01003329567721 1.1383e-07 au
q 3.131973211315414 9.7284e-07 au
i 1.637881745690365 1.1948e-05 deg
node 218.3679311002205 0.00046457 deg
peri 123.3959320523029 0.00047173 deg
M 246.979452231575 6.4088e-05 deg
tp 2459521.321183884159
(2021-Nov-02.82118388)
0.00054894 TDB
period 2933.056269356612
8.03
0.00012489
3.419e-07
d
yr
n .1227388658585022 5.2263e-09 deg/d
Q 4.888093380039006 1.3876e-07 au
  Orbit Determination Parameters
   # obs. used (total)      68  
   data-arc span      6252 days (17.12 yr)  
   first obs. used      1998-11-22  
   last obs. used      2016-01-04  
   planetary ephem.      DE431  
   SB-pert. ephem.      SB431-N16  
   condition code      0  
   norm. resid. RMS      .66227  
   source      ORB  
   producer      Otto Matic  
   solution date      2017-Apr-09 16:59:29  

Additional Information
 Earth MOID = 2.12339 au 
 Jupiter MOID = .569203 au 
 T_jup = 3.010 
[ show covariance matrix ]

Ephemeris | Orbit Diagram | Orbital Elements | Mission Design | Physical Parameters | Discovery Circumstances | Close-Approach Data ]

Physical Parameter Table
Parameter Symbol Value Units Sigma Reference Notes
absolute magnitude H 15.8   n/a MPO368784  

413922 (2006 WC152)          Discovered 2006-Nov-21 by Mt. Lemmon Survey at Mount Lemmon
Reference: Last Updated: 2014-11-10

[ show close-approach data ]
Ephemeris | Orbit Diagram | Orbital Elements | Mission Design | Physical Parameters | Discovery Circumstances | Close-Approach Data ]
ABOUT SSD CREDITS/AWARDS PRIVACY/COPYRIGHT GLOSSARY LINKS
FirstGov
(server date/time)  
NASA Home Page
Site Manager:   Ryan S. Park
Webmaster  Alan B. Chamberlin